Location: Bailey Inglish Elementary School
(33.5826°N, 96.1780°W)
Time: 00:31:26
(UTC+00:00)

BlueWalker 3 - Pass Details

Date: 01 July 2024
Orbit: 480 x 491 km, 53.2° (Epoch: 20 July)

Event Time Altitude Azimuth Distance (km) Brightness Sun altitude
Rises 05:30:17 0° 325° (NW) 2,536 6.5 -31.7°
Reaches altitude 10° 05:32:38 10° 336° (NNW) 1,654 5.4 -31.8°
Enters shadow 05:33:40 16° 346° (NNW) 1,310 4.8 -31.9°
